When you browse on this site, cookies collect data to enhance your experience and personalize the content and advertising you see.
Visit our Privacy Policy to learn more. By continuing to use the site, you agree to this use of cookies and data.
  • In Hungary
  • List of Countries
  • For 7 days
  • Water Temperature
  • Weather Map
  • News
  • Weather Widgets
  • user-avatar
    Login

    Hourly Weather Grochowiska

    Today, 12 November, Tuesday

    Time Temperature Precipitation Wind Pressure Humidity
    00:00 +4°C° 0 mm 3 mps 732 mmHg 85%
    01:00 +4°C° 0 mm 3 mps 732 mmHg 85%
    02:00 +4°C° 0 mm 3 mps 732 mmHg 86%
    03:00 +5°C° 0 mm 3 mps 732 mmHg 86%
    04:00 +5°C° 0 mm 3 mps 732 mmHg 86%
    05:00 +5°C° 0 mm 3 mps 732 mmHg 86%
    06:00 +6°C° 0 mm 2 mps 733 mmHg 86%
    07:00 +6°C° 0 mm 2 mps 733 mmHg 86%
    08:00 +6°C° 0.1 mm 2 mps 733 mmHg 85%
    09:00 +6°C° 0.1 mm 2 mps 733 mmHg 83%
    10:00 +7°C° 0.1 mm 2 mps 733 mmHg 82%
    11:00 +7°C° 0 mm 1 mps 733 mmHg 82%
    12:00 +7°C° 0 mm 1 mps 733 mmHg 81%
    13:00 +7°C° 0 mm 1 mps 732 mmHg 80%
    14:00 +7°C° 0.2 mm 1 mps 732 mmHg 83%
    15:00 +7°C° 0.2 mm 1 mps 732 mmHg 87%
    16:00 +5°C° 0.2 mm 0 mps 731 mmHg 90%
    17:00 +5°C° 0.6 mm 0 mps 731 mmHg 92%
    18:00 +6°C° 0.6 mm 1 mps 731 mmHg 94%
    19:00 +6°C° 0.6 mm 1 mps 731 mmHg 96%
    20:00 +6°C° 0.9 mm 1 mps 731 mmHg 96%
    21:00 +6°C° 0.9 mm 1 mps 730 mmHg 97%
    22:00 +6°C° 0.9 mm 1 mps 730 mmHg 97%
    23:00 +6°C° 0.8 mm 1 mps 730 mmHg 97%

    Tomorrow, 13 November, Wednesday

    Time Temperature Precipitation Wind Pressure Humidity
    00:00 +6°C° 0.8 mm 1 mps 730 mmHg 98%
    01:00 +6°C° 0.8 mm 1 mps 729 mmHg 98%
    02:00 +6°C° 0.1 mm 1 mps 729 mmHg 98%
    03:00 +6°C° 0.1 mm 1 mps 729 mmHg 98%
    04:00 +6°C° 0.1 mm 1 mps 728 mmHg 98%
    05:00 +6°C° 0 mm 1 mps 728 mmHg 98%
    06:00 +6°C° 0 mm 1 mps 728 mmHg 98%
    07:00 +6°C° 0 mm 1 mps 728 mmHg 97%
    08:00 +6°C° 0.2 mm 1 mps 728 mmHg 97%
    09:00 +6°C° 0.2 mm 1 mps 728 mmHg 96%
    10:00 +7°C° 0.2 mm 1 mps 728 mmHg 95%
    11:00 +5°C° 1.1 mm 2 mps 728 mmHg 95%
    12:00 +5°C° 1.1 mm 2 mps 728 mmHg 95%
    13:00 +5°C° 1.1 mm 2 mps 727 mmHg 95%
    14:00 +5°C° 0.9 mm 2 mps 727 mmHg 96%
    15:00 +5°C° 0.9 mm 2 mps 728 mmHg 96%
    16:00 +5°C° 0.9 mm 2 mps 728 mmHg 96%
    17:00 +5°C° 2 mm 2 mps 727 mmHg 96%
    18:00 +4°C° 2 mm 3 mps 727 mmHg 97%
    19:00 +3°C° 2 mm 3 mps 727 mmHg 97%
    20:00 +3°C° 5.9 mm 3 mps 727 mmHg 97%
    21:00 +1°C° 5.9 mm 4 mps 727 mmHg 97%
    22:00 0°C° 5.9 mm 4 mps 727 mmHg 98%
    23:00 +1°C° 1.2 mm 3 mps 728 mmHg 98%

    Day after tomorrow, 14 November, Thursday

    Time Temperature Precipitation Wind Pressure Humidity
    00:00 +1°C° 1.2 mm 3 mps 729 mmHg 97%
    01:00 +1°C° 1.2 mm 3 mps 729 mmHg 97%
    02:00 +2°C° 0 mm 2 mps 730 mmHg 97%
    03:00 +4°C° 0 mm 1 mps 730 mmHg 97%
    04:00 +4°C° 0 mm 1 mps 731 mmHg 97%
    05:00 +4°C° 0 mm 1 mps 731 mmHg 97%
    06:00 +4°C° 0 mm 1 mps 732 mmHg 96%
    07:00 +4°C° 0 mm 1 mps 732 mmHg 96%
    08:00 +4°C° 0 mm 1 mps 732 mmHg 94%
    09:00 +5°C° 0 mm 1 mps 732 mmHg 93%
    10:00 +4°C° 0 mm 2 mps 732 mmHg 91%
    11:00 +5°C° 0 mm 2 mps 732 mmHg 90%
    12:00 +5°C° 0 mm 2 mps 732 mmHg 89%
    13:00 +6°C° 0 mm 2 mps 732 mmHg 88%
    14:00 +5°C° 0 mm 2 mps 732 mmHg 89%
    15:00 +5°C° 0 mm 2 mps 732 mmHg 91%
    16:00 +5°C° 0 mm 2 mps 732 mmHg 93%
    17:00 +5°C° 0 mm 2 mps 731 mmHg 94%
    18:00 +6°C° 0 mm 1 mps 731 mmHg 95%
    19:00 +5°C° 0 mm 1 mps 731 mmHg 96%
    20:00 +5°C° 0 mm 1 mps 731 mmHg 96%
    21:00 +6°C° 0 mm 1 mps 731 mmHg 96%
    22:00 +6°C° 0 mm 1 mps 730 mmHg 97%
    23:00 +6°C° 0 mm 1 mps 730 mmHg 97%

    15 November, Friday

    Time Temperature Precipitation Wind Pressure Humidity
    00:00 +5°C° 0 mm 2 mps 730 mmHg 96%
    01:00 +5°C° 0 mm 2 mps 730 mmHg 96%
    02:00 +6°C° 0 mm 2 mps 730 mmHg 95%
    03:00 +5°C° 0 mm 3 mps 729 mmHg 95%
    04:00 +7°C° 0 mm 3 mps 729 mmHg 94%
    05:00 +7°C° 0 mm 3 mps 729 mmHg 93%
    06:00 +6°C° 0 mm 4 mps 729 mmHg 92%
    07:00 +7°C° 0 mm 4 mps 729 mmHg 91%
    08:00 +8°C° 0 mm 4 mps 729 mmHg 88%
    09:00 +10°C° 0 mm 5 mps 729 mmHg 85%
    10:00 +12°C° 0 mm 5 mps 729 mmHg 82%
    11:00 +13°C° 0 mm 5 mps 730 mmHg 78%
    12:00 +14°C° 0 mm 5 mps 730 mmHg 75%
    13:00 +14°C° 0 mm 5 mps 730 mmHg 71%
    14:00 +13°C° 0 mm 5 mps 730 mmHg 75%
    15:00 +12°C° 0 mm 4 mps 730 mmHg 78%
    16:00 +11°C° 0 mm 4 mps 730 mmHg 82%
    17:00 +11°C° 0 mm 4 mps 730 mmHg 83%
    18:00 +10°C° 0 mm 4 mps 730 mmHg 84%
    19:00 +10°C° 0 mm 4 mps 731 mmHg 85%
    20:00 +10°C° 0 mm 3 mps 731 mmHg 85%
    21:00 +10°C° 0 mm 3 mps 731 mmHg 86%
    22:00 +10°C° 0 mm 3 mps 731 mmHg 86%
    23:00 +10°C° 0 mm 3 mps 731 mmHg 85%

    16 November, Saturday

    Time Temperature Precipitation Wind Pressure Humidity
    00:00 +10°C° 0 mm 3 mps 731 mmHg 84%
    01:00 +10°C° 0 mm 3 mps 731 mmHg 84%
    02:00 +10°C° 0 mm 4 mps 731 mmHg 83%
    03:00 +10°C° 0 mm 4 mps 731 mmHg 83%
    04:00 +9°C° 0 mm 5 mps 730 mmHg 82%
    05:00 +9°C° 0 mm 5 mps 731 mmHg 83%
    06:00 +9°C° 0 mm 5 mps 731 mmHg 84%
    07:00 +9°C° 0 mm 5 mps 731 mmHg 84%
    08:00 +10°C° 0 mm 5 mps 732 mmHg 83%
    09:00 +10°C° 0 mm 5 mps 733 mmHg 81%
    10:00 +12°C° 0 mm 4 mps 734 mmHg 79%
    11:00 +12°C° 0.1 mm 4 mps 734 mmHg 80%
    12:00 +12°C° 0.1 mm 3 mps 734 mmHg 82%
    13:00 +12°C° 0.1 mm 2 mps 734 mmHg 83%
    14:00 +12°C° 0 mm 2 mps 735 mmHg 85%
    15:00 +12°C° 0 mm 1 mps 735 mmHg 86%
    16:00 +11°C° 0 mm 0 mps 735 mmHg 87%
    17:00 +11°C° 0 mm 1 mps 735 mmHg 89%
    18:00 +11°C° 0 mm 1 mps 735 mmHg 90%
    19:00 +11°C° 0 mm 1 mps 735 mmHg 91%
    20:00 +11°C° 0 mm 1 mps 735 mmHg 91%
    21:00 +11°C° 0 mm 1 mps 735 mmHg 91%
    22:00 +11°C° 0 mm 1 mps 736 mmHg 91%
    23:00 +10°C° 0 mm 2 mps 735 mmHg 91%

    17 November, Sunday

    Time Temperature Precipitation Wind Pressure Humidity
    00:00 +9°C° 0 mm 2 mps 735 mmHg 90%
    01:00 +9°C° 0 mm 2 mps 734 mmHg 90%
    02:00 +9°C° 0 mm 2 mps 734 mmHg 89%
    03:00 +9°C° 0 mm 2 mps 733 mmHg 88%
    04:00 +9°C° 0 mm 2 mps 733 mmHg 86%
    05:00 +9°C° 0 mm 3 mps 733 mmHg 86%
    06:00 +9°C° 0 mm 3 mps 733 mmHg 85%
    07:00 +9°C° 0 mm 3 mps 733 mmHg 84%
    08:00 +10°C° 0 mm 3 mps 733 mmHg 81%
    09:00 +11°C° 0 mm 3 mps 733 mmHg 78%
    10:00 +12°C° 0 mm 4 mps 733 mmHg 75%
    11:00 +13°C° 0 mm 4 mps 733 mmHg 74%
    12:00 +13°C° 0 mm 4 mps 732 mmHg 72%
    13:00 +14°C° 0 mm 4 mps 732 mmHg 71%
    14:00 +13°C° 0 mm 4 mps 732 mmHg 73%
    15:00 +12°C° 0 mm 4 mps 731 mmHg 75%
    16:00 +12°C° 0 mm 4 mps 731 mmHg 77%
    17:00 +11°C° 0 mm 3 mps 731 mmHg 78%
    18:00 +11°C° 0 mm 3 mps 731 mmHg 79%
    19:00 +10°C° 0 mm 3 mps 731 mmHg 80%
    20:00 +10°C° 0 mm 3 mps 731 mmHg 80%
    21:00 +10°C° 0 mm 3 mps 731 mmHg 80%
    22:00 +10°C° 0 mm 2 mps 731 mmHg 79%
    23:00 +10°C° 0 mm 2 mps 731 mmHg 80%
    Show more